Weather History for Minot, ND

Change the Weather History Date:

Thursday, March 6, 2014

  Actual Average Record
Temperature  
Mean Temperature 23 °F 24 °F  
Max Temperature 31 °F 32 °F 66 °F (1987)
Min Temperature 15 °F 15 °F -21 °F (1932)
Degree Days  
Heating Degree Days 42 41  
Month to date heating degree days 368 254  
Since 1 July heating degree days 7601 6830  
Cooling Degree Days 0 0  
Month to date cooling degree days 0 0  
Year to date cooling degree days 0 0  
Moisture  
Dew Point 15 °F    
Average Humidity 83    
Maximum Humidity 92    
Minimum Humidity 73    
Precipitation  
Precipitation 0.01 in 0.02 in 0.71 in (1983)
Month to date precipitation 0.03 0.11  
Year to date precipitation 0.39 1.02  
Sea Level Pressure  
Sea Level Pressure 29.76 in    
Wind  
Wind Speed 11 mph (NW)    
Max Wind Speed 21 mph    
Max Gust Speed 25 mph    
Visibility 6 miles    
Events      
T = Trace of Precipitation, MM = Missing Value Source: NWS Daily Summary

Daily Weather History Graph

Daily Weather History Graph

Search for Another Location

Airport:

Trip Planner

Search our weather history database for the weather conditions in past years. The results will help you decide how hot, cold, wet, or windy it might be!

Date:

Astronomy

Mar. 06, 2014 Rise Set
Actual Time 7:16 AM CST 6:37 PM CST
Civil Twilight 6:45 AM CST 7:08 PM CST
Nautical Twilight 6:09 AM CST 7:44 PM CST
Astronomical Twilight 5:32 AM CST 8:20 PM CST
Moon 9:59 AM CST (3/6) 12:11 AM CST (3/6)
Length of Visible Light 12h 22m
Length of Day
11h 20m
Waxing Crescent, 32% of the Moon is Illuminated
Mar 6
Waxing Crescent
Mar 8
First Quarter
Mar 16
Full
Mar 23
Last Quarter
Mar 30
New

Hourly Weather History & Observations

Time (CST) Temp. Windchill Dew Point Humidity Pressure Visibility Wind Dir Wind Speed Gust Speed Precip Events Conditions
12:54 AM 25.0 °F 18.1 °F 19.9 °F 81% 29.79 in 10.0 mi SE 5.8 mph - N/A   Overcast
1:54 AM 28.0 °F 21.7 °F 23.0 °F 81% 29.74 in 8.0 mi SE 5.8 mph - 0.00 in   Overcast
2:54 AM 30.9 °F 20.7 °F 25.0 °F 79% 29.73 in 10.0 mi South 13.8 mph - 0.00 in   Overcast
3:54 AM 30.0 °F 20.5 °F 24.1 °F 79% 29.69 in 10.0 mi South 11.5 mph - 0.01 in   Mostly Cloudy
4:54 AM 28.0 °F 17.5 °F 23.0 °F 81% 29.69 in 10.0 mi South 12.7 mph - N/A   Clear
5:54 AM 24.1 °F 19.7 °F 19.0 °F 81% 29.71 in 10.0 mi WSW 3.5 mph - N/A   Clear
6:54 AM 18.0 °F 8.7 °F 16.0 °F 92% 29.72 in 6.0 mi NNW 6.9 mph - N/A   Clear
7:29 AM 17.1 °F 5.0 °F 14.0 °F 88% 29.64 in 3.0 mi WNW 10.4 mph - N/A   Scattered Clouds
7:37 AM 18.0 °F 6.1 °F 15.1 °F 88% 29.64 in 3.0 mi WNW 10.4 mph - N/A   Mostly Cloudy
7:54 AM 18.0 °F 6.9 °F 15.1 °F 88% 29.73 in 3.0 mi West 9.2 mph - N/A   Overcast
8:00 AM 19.0 °F 9.0 °F 16.0 °F 88% 29.65 in 1.8 mi WNW 8.1 mph - N/A   Overcast
8:18 AM 19.9 °F 7.9 °F 17.1 °F 89% 29.66 in 3.0 mi WNW 11.5 mph - N/A   Overcast
8:31 AM 19.9 °F 8.6 °F 18.0 °F 92% 29.66 in 3.0 mi NW 10.4 mph - N/A   Overcast
8:54 AM 21.0 °F 10.6 °F 18.0 °F 88% 29.76 in 4.0 mi NW 9.2 mph - N/A   Overcast
9:54 AM 21.9 °F 10.4 °F 18.0 °F 85% 29.76 in 4.0 mi NNW 11.5 mph - N/A   Overcast
10:21 AM 21.0 °F 9.3 °F 17.1 °F 85% 29.69 in 5.0 mi NW 11.5 mph - N/A   Overcast
10:54 AM 19.9 °F 7.9 °F 16.0 °F 85% 29.78 in 5.0 mi NW 11.5 mph - N/A   Overcast
11:26 AM 19.0 °F 6.1 °F 16.0 °F 88% 29.69 in 2.0 mi NNW 12.7 mph - N/A   Overcast
11:31 AM 19.0 °F 5.6 °F 16.0 °F 88% 29.69 in 1.8 mi NNW 13.8 mph - N/A   Overcast
11:54 AM 19.0 °F 7.5 °F 16.0 °F 88% 29.78 in 1.5 mi NW 10.4 mph - N/A   Overcast
12:09 PM 19.0 °F 7.5 °F 16.0 °F 88% 29.68 in 2.0 mi NNW 10.4 mph - N/A   Overcast
12:20 PM 18.0 °F 6.1 °F 16.0 °F 92% 29.68 in 3.0 mi NW 10.4 mph - N/A   Overcast
12:54 PM 18.0 °F 5.4 °F 15.1 °F 88% 29.77 in 4.0 mi NW 11.5 mph - N/A   Overcast
1:18 PM 18.0 °F 4.8 °F 14.0 °F 84% 29.70 in 4.0 mi NW 12.7 mph - 0.00 in   Overcast
1:54 PM 19.0 °F 11.1 °F 14.0 °F 81% 29.75 in 5.0 mi NNW 5.8 mph - 0.00 in   Haze
2:54 PM 19.0 °F 11.1 °F 14.0 °F 81% 29.73 in 6.0 mi NNW 5.8 mph - N/A   Haze
3:54 PM 18.0 °F 7.7 °F 12.9 °F 81% 29.75 in 6.0 mi NNW 8.1 mph - N/A   Haze
4:54 PM 17.1 °F 2.5 °F 12.9 °F 84% 29.79 in 8.0 mi NW 15.0 mph - N/A   Overcast
5:33 PM 17.1 °F 3.0 °F 12.0 °F 81% 29.70 in 9.0 mi NW 13.8 mph - N/A   Overcast
5:54 PM 17.1 °F 2.5 °F 12.0 °F 81% 29.80 in 9.0 mi NW 15.0 mph - N/A   Overcast
6:54 PM 17.1 °F 2.5 °F 12.0 °F 81% 29.83 in 8.0 mi NW 15.0 mph - N/A   Overcast
7:44 PM 17.1 °F 2.5 °F 10.9 °F 77% 29.76 in 10.0 mi NW 15.0 mph - N/A   Overcast
7:54 PM 17.1 °F 2.0 °F 12.0 °F 81% 29.86 in 8.0 mi NW 16.1 mph - N/A   Overcast
8:22 PM 16.0 °F 0.1 °F 10.9 °F 81% 29.78 in 10.0 mi NW 17.3 mph - N/A   Overcast
8:54 PM 16.0 °F 2.3 °F 10.9 °F 81% 29.89 in 9.0 mi NW 12.7 mph - N/A   Overcast
9:27 PM 15.1 °F -1.1 °F 10.0 °F 80% 29.82 in 10.0 mi NW 17.3 mph - N/A   Overcast
9:54 PM 15.1 °F -0.6 °F 10.0 °F 80% 29.92 in 10.0 mi NW 16.1 mph - N/A   Overcast
10:54 PM 15.1 °F 0.5 °F 9.0 °F 77% 29.96 in 10.0 mi NW 13.8 mph - N/A   Overcast
11:14 PM 15.1 °F -0.1 °F 9.0 °F 77% 29.88 in 10.0 mi WNW 15.0 mph - N/A   Overcast
11:54 PM 15.1 °F 1.1 °F 9.0 °F 77% 29.99 in 10.0 mi WNW 12.7 mph - N/A   Overcast